Location: G�ndlingen
(48.0142°N, 7.6396°E)
Time: 19:09:40
(UTC+00:00)

Cosmos 1408 - Pass Details

Date: 05 July 2020
Orbit: 471 x 493 km, 82.6° (Epoch: 12 August)

Event Time Altitude Azimuth Distance (km) Brightness Sun altitude
Exits shadow 21:29:01 18° 109° (ESE) 1,222 4.2 -13.9°
Maximum altitude 21:29:55 20° 88° (E) 1,156 4.2 -14.0°
Drops below altitude 10° 21:32:35 10° 40° (NE) 1,645 5.5 -14.2°
Sets 21:35:03 0° 23° (NNE) 2,528 6.8 -14.4°
